BCS5Y EDDP-EYVI

Flight info

Callsign BCS5Y
Flight time 1h 13m
Altitude 31000
Route PENEM1S PENEM Y236 OLBIK L735 LUROS/N0406F270 Y621 SUBIX/N0450F370 N858 BOKSU DCT IRKAL
Aircraft A333/H-SDE3GHIJ2J3J5M1RVWXY/LB2D1

Departure

Time 2026-05-05 12:02
Airport Leipzig/Halle Airport (EDDP)

Arrival

Time 2026-05-05 13:15
Airport Vilnius International Airport (EYVI)
Time Latitude Longitude Altitude Speed Heading
2026-05-05 11:40 51.40820 12.24042 468 ft 0 kts 266°
2026-05-05 11:54 51.40820 12.24046 468 ft 2 kts 266°
2026-05-05 11:54 51.40821 12.24072 468 ft 2 kts 267°
2026-05-05 11:54 51.40822 12.24098 468 ft 2 kts 268°
2026-05-05 11:54 51.40822 12.24125 468 ft 2 kts 270°
2026-05-05 11:55 51.40822 12.24151 468 ft 2 kts 272°
2026-05-05 11:55 51.40821 12.24177 468 ft 2 kts 276°
2026-05-05 11:55 51.40818 12.24203 467 ft 2 kts 285°
2026-05-05 11:55 51.40812 12.24228 463 ft 2 kts 309°
2026-05-05 11:56 51.40800 12.24243 463 ft 2 kts 350°
2026-05-05 11:56 51.40794 12.24244 464 ft 0 kts 355°
2026-05-05 11:58 51.40796 12.24244 463 ft 1 kts 355°
2026-05-05 11:58 51.40819 12.24241 466 ft 5 kts 355°
2026-05-05 11:58 51.40869 12.24235 468 ft 9 kts 356°
2026-05-05 11:58 51.40941 12.24228 467 ft 12 kts 356°
2026-05-05 11:59 51.41031 12.24216 468 ft 14 kts 355°
2026-05-05 11:59 51.41075 12.24254 467 ft 6 kts 54°
2026-05-05 11:59 51.41083 12.24312 471 ft 7 kts 85°
2026-05-05 11:59 51.41088 12.24429 469 ft 14 kts 86°
2026-05-05 12:00 51.41097 12.24629 473 ft 21 kts 85°
2026-05-05 12:00 51.41110 12.24903 476 ft 28 kts 86°
2026-05-05 12:00 51.41126 12.25240 475 ft 33 kts 85°
2026-05-05 12:00 51.41174 12.25449 473 ft 16 kts 13°
2026-05-05 12:01 51.41285 12.25421 471 ft 15 kts 335°
2026-05-05 12:01 51.41366 12.25307 475 ft 16 kts 305°
2026-05-05 12:01 51.41382 12.25158 477 ft 0 kts 265°
2026-05-05 12:01 51.41376 12.25045 476 ft 34 kts 265°
2026-05-05 12:02 51.41342 12.24316 480 ft 95 kts 266°
2026-05-05 12:02 51.41279 12.22953 470 ft 149 kts 265°
2026-05-05 12:02 51.41198 12.21044 623 ft 185 kts 268°
2026-05-05 12:02 51.41130 12.18928 1352 ft 195 kts 268°
2026-05-05 12:03 51.41041 12.16693 2143 ft 203 kts 267°
2026-05-05 12:03 51.40923 12.14343 2799 ft 220 kts 265°
2026-05-05 12:03 51.40915 12.11862 3612 ft 224 kts 281°
2026-05-05 12:03 51.41550 12.09616 4480 ft 225 kts 313°
2026-05-05 12:04 51.42880 12.08253 4988 ft 245 kts 344°
2026-05-05 12:04 51.44650 12.07985 5470 ft 264 kts 358°
2026-05-05 12:04 51.46515 12.08040 6188 ft 272 kts 360°
2026-05-05 12:04 51.48427 12.08113 6959 ft 277 kts 359°
2026-05-05 12:05 51.50374 12.08162 7736 ft 282 kts 359°
2026-05-05 12:05 51.52359 12.08190 8540 ft 287 kts 359°
2026-05-05 12:05 51.54381 12.08246 9344 ft 293 kts 359°
2026-05-05 12:05 51.56435 12.08320 10089 ft 299 kts 359°
2026-05-05 12:06 51.58585 12.08396 10439 ft 319 kts 359°
2026-05-05 12:06 51.60878 12.08475 10698 ft 340 kts 359°
2026-05-05 12:06 51.63302 12.08564 11146 ft 354 kts
2026-05-05 12:06 51.65773 12.09047 11812 ft 362 kts 13°
2026-05-05 12:07 51.68114 12.10598 12553 ft 369 kts 31°
2026-05-05 12:07 51.70067 12.13293 13338 ft 374 kts 50°
2026-05-05 12:07 51.71413 12.16902 14070 ft 379 kts 70°
2026-05-05 12:07 51.72139 12.21003 14669 ft 384 kts 78°
2026-05-05 12:08 51.72610 12.25238 15243 ft 390 kts 83°
2026-05-05 12:08 51.72955 12.29594 15897 ft 394 kts 85°
2026-05-05 12:08 51.73256 12.34013 16558 ft 399 kts 85°
2026-05-05 12:08 51.73560 12.38487 17262 ft 404 kts 85°
2026-05-05 12:09 51.73887 12.43038 17876 ft 410 kts 84°
2026-05-05 12:09 51.74239 12.47623 18428 ft 414 kts 84°
2026-05-05 12:09 51.74611 12.52250 18976 ft 417 kts 84°
2026-05-05 12:09 51.74996 12.56908 19541 ft 420 kts 84°
2026-05-05 12:10 51.75386 12.61593 20089 ft 423 kts 84°
2026-05-05 12:10 51.75779 12.66307 20637 ft 425 kts 84°
2026-05-05 12:10 51.76172 12.71060 21148 ft 428 kts 84°
2026-05-05 12:10 51.76565 12.75850 21587 ft 433 kts 84°
2026-05-05 12:11 51.76958 12.80686 22095 ft 436 kts 84°
2026-05-05 12:11 51.77374 12.85552 22619 ft 439 kts 82°
2026-05-05 12:11 51.78088 12.90367 23122 ft 443 kts 73°
2026-05-05 12:11 51.79251 12.94987 23579 ft 447 kts 64°
2026-05-05 12:12 51.80698 12.99463 23983 ft 451 kts 61°
2026-05-05 12:12 51.82262 13.03871 24375 ft 454 kts 59°
2026-05-05 12:12 51.83900 13.08280 24759 ft 457 kts 59°
2026-05-05 12:12 51.85562 13.12680 25157 ft 460 kts 59°
2026-05-05 12:13 51.87241 13.17126 25536 ft 463 kts 59°
2026-05-05 12:13 51.88919 13.21604 25921 ft 466 kts 59°
2026-05-05 12:13 51.90595 13.26112 26289 ft 469 kts 59°
2026-05-05 12:13 51.92251 13.30604 26633 ft 473 kts 59°
2026-05-05 12:14 51.93938 13.35201 26989 ft 476 kts 59°
2026-05-05 12:14 51.95630 13.39831 27353 ft 479 kts 59°
2026-05-05 12:14 51.97331 13.44497 27732 ft 481 kts 59°
2026-05-05 12:14 51.99037 13.49184 28126 ft 484 kts 59°
2026-05-05 12:15 52.00755 13.53911 28438 ft 488 kts 59°
2026-05-05 12:15 52.02490 13.58692 28778 ft 491 kts 59°
2026-05-05 12:15 52.04226 13.63485 29139 ft 494 kts 59°
2026-05-05 12:15 52.05971 13.68312 29477 ft 496 kts 59°
2026-05-05 12:16 52.07721 13.73163 29843 ft 499 kts 59°
2026-05-05 12:16 52.09480 13.78046 30144 ft 502 kts 59°
2026-05-05 12:16 52.11247 13.82964 30456 ft 504 kts 59°
2026-05-05 12:16 52.13020 13.87906 30753 ft 507 kts 59°
2026-05-05 12:17 52.14788 13.92845 30864 ft 499 kts 59°
2026-05-05 12:17 52.16503 13.97647 30877 ft 484 kts 59°
2026-05-05 12:17 52.19830 14.06986 30874 ft 480 kts 58°
2026-05-05 12:18 52.23192 14.16456 30873 ft 482 kts 59°
2026-05-05 12:18 52.26538 14.25917 30874 ft 482 kts 59°
2026-05-05 12:19 52.29940 14.35567 30861 ft 500 kts 59°
2026-05-05 12:19 52.33448 14.45556 30877 ft 519 kts 59°
2026-05-05 12:20 52.37090 14.55974 30871 ft 536 kts 59°
2026-05-05 12:20 52.40848 14.66609 30871 ft 540 kts 58°
2026-05-05 12:21 52.44651 14.77222 30877 ft 539 kts 58°
2026-05-05 12:21 52.48438 14.87824 30879 ft 539 kts 58°
2026-05-05 12:22 52.52212 14.98455 30877 ft 539 kts 58°
2026-05-05 12:22 52.55972 15.09108 30879 ft 539 kts 58°
2026-05-05 12:23 52.59701 15.19722 30874 ft 539 kts 58°
2026-05-05 12:23 52.63437 15.30401 30890 ft 538 kts 58°
2026-05-05 12:24 52.67158 15.41081 30887 ft 538 kts 59°
2026-05-05 12:24 52.70873 15.51791 30892 ft 538 kts 59°
2026-05-05 12:25 52.74575 15.62507 30883 ft 538 kts 59°
2026-05-05 12:25 52.78267 15.73247 30883 ft 538 kts 59°
2026-05-05 12:26 52.81810 15.84120 30871 ft 537 kts 65°
2026-05-05 12:26 52.84814 15.95409 30884 ft 536 kts 66°
2026-05-05 12:27 52.87705 16.06788 30887 ft 535 kts 66°
2026-05-05 12:27 52.90559 16.18172 30888 ft 535 kts 67°
2026-05-05 12:28 52.93393 16.29505 30932 ft 535 kts 67°
2026-05-05 12:28 52.96235 16.40896 31082 ft 534 kts 67°
2026-05-05 12:29 52.97648 16.46576 31195 ft 532 kts 68°
2026-05-05 12:29 52.99052 16.52237 31364 ft 529 kts 68°
2026-05-05 12:29 53.00450 16.57883 31501 ft 529 kts 68°
2026-05-05 12:29 53.01849 16.63553 31635 ft 529 kts 68°
2026-05-05 12:30 53.03242 16.69213 31818 ft 529 kts 68°
2026-05-05 12:30 53.04631 16.74869 32055 ft 529 kts 68°
2026-05-05 12:30 53.06014 16.80515 32353 ft 528 kts 68°
2026-05-05 12:30 53.07393 16.86157 32629 ft 528 kts 69°
2026-05-05 12:31 53.08775 16.91827 32890 ft 527 kts 69°
2026-05-05 12:31 53.10148 16.97477 32900 ft 526 kts 69°
2026-05-05 12:31 53.12881 17.08770 32885 ft 526 kts 69°
2026-05-05 12:32 53.15600 17.20065 32886 ft 525 kts 69°
2026-05-05 12:32 53.18305 17.31364 32889 ft 524 kts 69°
2026-05-05 12:33 53.20980 17.42591 32889 ft 524 kts 69°
2026-05-05 12:33 53.23666 17.53921 32886 ft 527 kts 69°
2026-05-05 12:34 53.26354 17.65324 32889 ft 528 kts 70°
2026-05-05 12:34 53.29036 17.76762 32886 ft 527 kts 69°
2026-05-05 12:35 53.31699 17.88177 32887 ft 526 kts 70°
2026-05-05 12:35 53.34329 17.99510 32886 ft 526 kts 70°
2026-05-05 12:36 53.36965 18.10932 32892 ft 526 kts 70°
2026-05-05 12:36 53.39590 18.22390 32883 ft 528 kts 70°
2026-05-05 12:37 53.42209 18.33921 32869 ft 529 kts 70°
2026-05-05 12:37 53.44807 18.45427 32882 ft 527 kts 70°
2026-05-05 12:38 53.46961 18.55014 32884 ft 527 kts 70°
2026-05-05 12:38 53.49537 18.66529 32885 ft 527 kts 70°
2026-05-05 12:39 53.52098 18.78056 32887 ft 527 kts 71°
2026-05-05 12:39 53.54534 18.89699 32885 ft 529 kts 72°
2026-05-05 12:40 53.56897 19.01428 32884 ft 530 kts 72°
2026-05-05 12:40 53.59251 19.13163 32890 ft 529 kts 72°
2026-05-05 12:41 53.61607 19.24909 32889 ft 529 kts 72°
2026-05-05 12:41 53.63957 19.36664 32889 ft 529 kts 72°
2026-05-05 12:42 53.66297 19.48434 32887 ft 529 kts 73°
2026-05-05 12:42 53.68611 19.60153 32889 ft 531 kts 73°
2026-05-05 12:43 53.70936 19.72002 32889 ft 532 kts 73°
2026-05-05 12:43 53.73252 19.83880 32892 ft 532 kts 73°
2026-05-05 12:44 53.75554 19.95779 32892 ft 532 kts 73°
2026-05-05 12:44 53.77841 20.07679 32892 ft 532 kts 73°
2026-05-05 12:45 53.80118 20.19593 32892 ft 532 kts 73°
2026-05-05 12:45 53.82381 20.31515 32889 ft 533 kts 73°
2026-05-05 12:46 53.84639 20.43477 32889 ft 533 kts 73°
2026-05-05 12:46 53.86868 20.55359 32890 ft 533 kts 73°
2026-05-05 12:47 53.89105 20.67345 32889 ft 533 kts 73°
2026-05-05 12:47 53.91333 20.79354 32892 ft 533 kts 73°
2026-05-05 12:48 53.93546 20.91361 32894 ft 533 kts 73°
2026-05-05 12:48 53.95749 21.03388 32894 ft 534 kts 73°
2026-05-05 12:49 53.97948 21.15479 32892 ft 536 kts 73°
2026-05-05 12:49 54.00136 21.27586 32892 ft 536 kts 73°
2026-05-05 12:50 54.02314 21.39693 32891 ft 536 kts 74°
2026-05-05 12:50 54.04468 21.51741 32892 ft 536 kts 74°
2026-05-05 12:51 54.06624 21.63881 32890 ft 534 kts 74°
2026-05-05 12:51 54.08761 21.75988 32893 ft 533 kts 74°
2026-05-05 12:52 54.10884 21.88103 32889 ft 533 kts 74°
2026-05-05 12:52 54.12992 22.00217 32889 ft 533 kts 74°
2026-05-05 12:53 54.15089 22.12345 32890 ft 533 kts 74°
2026-05-05 12:53 54.17174 22.24493 32889 ft 533 kts 74°
2026-05-05 12:54 54.20249 22.42591 32901 ft 530 kts 75°
2026-05-05 12:54 54.21268 22.48635 32684 ft 528 kts 75°
2026-05-05 12:55 54.22283 22.54672 31772 ft 530 kts 75°
2026-05-05 12:55 54.23305 22.60774 30790 ft 536 kts 75°
2026-05-05 12:55 54.24328 22.66902 30179 ft 537 kts 75°
2026-05-05 12:55 54.25354 22.73064 29573 ft 537 kts 75°
2026-05-05 12:56 54.26372 22.79204 28867 ft 535 kts 75°
2026-05-05 12:56 54.27377 22.85284 28245 ft 528 kts 75°
2026-05-05 12:56 54.28370 22.91310 27661 ft 523 kts 75°
2026-05-05 12:56 54.29347 22.97269 27072 ft 518 kts 75°
2026-05-05 12:57 54.30312 23.03171 26482 ft 512 kts 75°
2026-05-05 12:57 54.31242 23.08966 25951 ft 507 kts 75°
2026-05-05 12:57 54.32166 23.14850 25399 ft 503 kts 76°
2026-05-05 12:57 54.33055 23.20547 24902 ft 500 kts 76°
2026-05-05 12:58 54.33947 23.26284 24359 ft 498 kts 76°
2026-05-05 12:58 54.34835 23.32008 23849 ft 495 kts 76°
2026-05-05 12:58 54.35715 23.37698 23337 ft 491 kts 76°
2026-05-05 12:58 54.36586 23.43344 22729 ft 488 kts 76°
2026-05-05 12:59 54.37445 23.48939 22187 ft 482 kts 76°
2026-05-05 12:59 54.38295 23.54488 21657 ft 479 kts 76°
2026-05-05 12:59 54.39135 23.59993 21110 ft 476 kts 76°
2026-05-05 13:00 54.40790 23.70888 20117 ft 468 kts 76°
2026-05-05 13:00 54.41605 23.76279 19628 ft 465 kts 76°
2026-05-05 13:01 54.44001 23.92247 18203 ft 456 kts 76°
2026-05-05 13:01 54.44786 23.97509 17693 ft 453 kts 76°
2026-05-05 13:01 54.45563 24.02737 17161 ft 451 kts 76°
2026-05-05 13:01 54.46333 24.07935 16637 ft 448 kts 76°
2026-05-05 13:02 54.47096 24.13106 16123 ft 444 kts 76°
2026-05-05 13:02 54.47854 24.18227 15661 ft 440 kts 75°
2026-05-05 13:02 54.48980 24.23082 15237 ft 436 kts 58°
2026-05-05 13:02 54.50689 24.27347 14862 ft 431 kts 51°
2026-05-05 13:03 54.52499 24.31393 14451 ft 421 kts 51°
2026-05-05 13:03 54.54274 24.35322 14086 ft 411 kts 51°
2026-05-05 13:03 54.55985 24.39135 13716 ft 403 kts 51°
2026-05-05 13:03 54.57672 24.42919 13314 ft 395 kts 51°
2026-05-05 13:04 54.59333 24.46665 12885 ft 388 kts 51°
2026-05-05 13:04 54.60955 24.50336 12492 ft 381 kts 51°
2026-05-05 13:04 54.62546 24.53944 12088 ft 375 kts 51°
2026-05-05 13:04 54.64113 24.57506 11685 ft 369 kts 51°
2026-05-05 13:05 54.65651 24.61009 11282 ft 364 kts 51°
2026-05-05 13:05 54.67167 24.64465 10920 ft 358 kts 51°
2026-05-05 13:05 54.68664 24.67884 10557 ft 353 kts 51°
2026-05-05 13:05 54.70137 24.71256 10187 ft 348 kts 51°
2026-05-05 13:06 54.71585 24.74572 9832 ft 344 kts 52°
2026-05-05 13:06 54.73015 24.77848 9442 ft 334 kts 52°
2026-05-05 13:06 54.74367 24.80956 9071 ft 321 kts 52°
2026-05-05 13:06 54.75686 24.83991 8683 ft 311 kts 51°
2026-05-05 13:07 54.76995 24.87006 8346 ft 308 kts 52°
2026-05-05 13:07 54.78268 24.89938 8014 ft 309 kts 52°
2026-05-05 13:07 54.79558 24.92916 7697 ft 308 kts 51°
2026-05-05 13:07 54.80836 24.95878 7408 ft 305 kts 51°
2026-05-05 13:08 54.82106 24.98816 7158 ft 304 kts 51°
2026-05-05 13:08 54.83369 25.01738 6923 ft 303 kts 51°
2026-05-05 13:08 54.84630 25.04658 6644 ft 301 kts 51°
2026-05-05 13:08 54.85840 25.07623 6351 ft 301 kts 59°
2026-05-05 13:09 54.86468 25.11041 6041 ft 298 kts 89°
2026-05-05 13:09 54.86243 25.14558 5739 ft 292 kts 104°
2026-05-05 13:09 54.85773 25.17973 5422 ft 289 kts 106°
2026-05-05 13:09 54.85274 25.21320 5134 ft 281 kts 106°
2026-05-05 13:10 54.84776 25.24527 4831 ft 269 kts 110°
2026-05-05 13:10 54.84144 25.27514 4541 ft 260 kts 114°
2026-05-05 13:10 54.83477 25.30398 4177 ft 256 kts 114°
2026-05-05 13:10 54.82809 25.33248 3781 ft 251 kts 114°
2026-05-05 13:11 54.82157 25.36007 3422 ft 244 kts 116°
2026-05-05 13:11 54.81219 25.38331 3142 ft 229 kts 143°
2026-05-05 13:11 54.79849 25.39381 2893 ft 209 kts 177°
2026-05-05 13:11 54.78446 25.39081 2730 ft 202 kts 200°
2026-05-05 13:12 54.77129 25.38232 2669 ft 203 kts 205°
2026-05-05 13:12 54.75829 25.37291 2675 ft 201 kts 206°
2026-05-05 13:12 54.74540 25.36356 2680 ft 201 kts 205°
2026-05-05 13:12 54.73264 25.35419 2554 ft 197 kts 206°
2026-05-05 13:13 54.72010 25.34553 2264 ft 193 kts 206°
2026-05-05 13:13 54.70807 25.33714 1996 ft 183 kts 206°
2026-05-05 13:13 54.69666 25.32929 1777 ft 166 kts 207°
2026-05-05 13:13 54.68624 25.32201 1570 ft 157 kts 207°
2026-05-05 13:14 54.67658 25.31527 1364 ft 146 kts 206°
2026-05-05 13:14 54.66749 25.30890 1094 ft 136 kts 208°
2026-05-05 13:14 54.65858 25.30268 1059 ft 146 kts 207°
2026-05-05 13:14 54.64898 25.29611 813 ft 148 kts 206°
2026-05-05 13:15 54.63972 25.28965 649 ft 136 kts 205°
2026-05-05 13:15 54.63262 25.28470 619 ft 87 kts 202°
2026-05-05 13:15 54.62809 25.28158 602 ft 61 kts 202°
2026-05-05 13:15 54.62575 25.27997 617 ft 28 kts 201°
2026-05-05 13:16 54.62406 25.27977 622 ft 20 kts 196°
2026-05-05 13:16 54.62374 25.27917 625 ft 3 kts 272°
2026-05-05 13:16 54.62394 25.27884 625 ft 5 kts 339°
2026-05-05 13:16 54.62453 25.27910 623 ft 12 kts 22°
2026-05-05 13:17 54.62553 25.27980 619 ft 18 kts 22°
2026-05-05 13:17 54.62690 25.28076 603 ft 24 kts 22°
2026-05-05 13:17 54.62851 25.28184 602 ft 26 kts 21°
2026-05-05 13:17 54.63011 25.28298 617 ft 24 kts 22°
2026-05-05 13:18 54.63167 25.28405 619 ft 24 kts 21°
2026-05-05 13:18 54.63314 25.28510 624 ft 23 kts 21°
2026-05-05 13:18 54.63459 25.28608 616 ft 22 kts 21°
2026-05-05 13:18 54.63588 25.28697 631 ft 18 kts 21°
2026-05-05 13:19 54.63696 25.28763 636 ft 15 kts 14°
2026-05-05 13:19 54.63786 25.28754 643 ft 12 kts 354°
2026-05-05 13:19 54.63852 25.28741 646 ft 7 kts 353°
2026-05-05 13:19 54.63895 25.28734 645 ft 6 kts 355°
2026-05-05 13:20 54.63943 25.28726 649 ft 8 kts 355°
2026-05-05 13:20 54.64004 25.28717 646 ft 10 kts 354°
2026-05-05 13:20 54.64070 25.28724 649 ft 8 kts 22°
2026-05-05 13:20 54.64124 25.28764 653 ft 10 kts 22°
2026-05-05 13:21 54.64193 25.28812 657 ft 12 kts 22°
2026-05-05 13:21 54.64275 25.28869 656 ft 14 kts 21°
2026-05-05 13:21 54.64374 25.28936 659 ft 16 kts 21°
2026-05-05 13:21 54.64481 25.29013 661 ft 17 kts 22°
2026-05-05 13:22 54.64534 25.28977 661 ft 3 kts 276°
2026-05-05 13:22 54.64526 25.28930 661 ft 6 kts 246°
2026-05-05 13:22 54.64500 25.28848 660 ft 10 kts 242°
2026-05-05 13:22 54.64476 25.28772 659 ft 3 kts 241°
2026-05-05 13:23 54.64468 25.28749 658 ft 0 kts 241°